Showing default

OPS 4947 (TRANSIT 17), 2965

Orbit data source: Space-Track

OPS 4947 (TRANSIT 17), 2965 is a payload satellite owned by USN NAVAIR (US) in LEO that was launched on Mon, 25 Sep 1967 UTC via an SCOUT A launch vehicle from the Air Force Western Test Range (AFWTR). Payload-class satellites include a variety of spacecraft equipped with specific instruments for various scientific and technological missions. These include communications satellites like Starlink; space stations such as the ISS; scientific satellites like the Hubble; Earth observation satellites from companies like Planet Labs, Umbra, and HawkEye 360; GPS; miniature CubeSats for education and research; and military/defense satellites.

Loading next visibility...
Identifier
2965, 1967-092A
Orbit
LEO
Country
Flag of USUS
Related business
Manufacturer
APL
Mission
Spacecraft
Bus & Motor
TRANSIT 5, Unknown motor
Mass
~50 kg wet, ~50 kg dry
Launch date (UTC)
1967-09-25 (59 years ago)
Launch vehicle
SCOUT A
Launch site
Air Force Western Test Range (AFWTR)
Object type
Payload
Rocket body
Debris
Shape & HBR
Unknown
Radar Cross Section
Medium (>0.1 m² and <1 m²)

Expand to show TLE details & history
Last TLE update: 17 hours ago

TLE from 17 hours ago
0 OPS 4947 (TRANSIT 17)
1  2965U 67092A   26150.15616985  .00000152  00000-0  20732-3 0  9996
2  2965  89.2550  11.6729 0049520 106.0117   7.9749 13.53496075893756
Epoch: 2026-05-30T03:44Z
TLE epoch observation values (Epoch: 2026-05-30T03:44:53.075Z)
Latitude
66.0037°
Longitude
-113.88976°
Altitude
1,034.438 km
Speed
7.359 km/s
True Right ascension
12h 40m 01s
True Declination
65° 52' 50"
Sunlit
Object was in daylight at epoch
Visualization orbit readout
Latitude
Unknown
Longitude
Unknown
Altitude
Unknown
Speed
Unknown
Apparent Right ascension
Unknown
Apparent Declination
Unknown
Sunlit
N/A
Visualization observer readout
Local Sidereal Time
06:14:38
Azimuth
Unknown
Elevation
Unknown
Doppler factor
Unknown
Orbital elements
Apogee altitude
1,093.286 km
Perigee altitude
1,019.653 km
Semi-major axis
7,434.607 km
Eccentricity
0.00495
Inclination
89.255°
RAAN
11.6729°
Arg. of periapsis
106.0117°
True anomaly
8.05411°
Mean anomaly
7.9749°
Eccentric anomaly
8.01446°
Mean motion
3.38576 °/min
Orbital period
106.33 mins
BSTAR
0.00020732
Loading maneuver chart data...
Computing Atmospheric mass density...
Loading historical data...
Loading historical data...
Loading historical data...
Loading historical data...
Loading historical data...
Loading historical data...
Loading historical data...

Documentation

Showing up to 5 results
|